Theta_e
322 315 323 314 300 296 291 296 300 302 305 309 314 313 313 315 310 305 328 329 328 334 339 342 345 346 346 347 346 346 343 341 341 339 337 336 336 335 335 335 335 334 334 334 334 334 334 334 332
318 316 314 306 296 290 291 297 300 303 308 317 316 315 316 313 322 323 324 329 332 336 338 340 343 346 347 347 345 344 344 341 339 337 336 335 335 335 334 334 334 334 334 334 333 333 332 332 331
311 314 307 301 296 292 292 299 301 307 308 312 312 318 317 316 321 325 327 331 335 336 338 339 342 345 347 346 345 344 343 339 337 336 335 335 335 335 334 334 333 333 333 333 332 332 331 330 328
307 306 302 296 295 298 298 301 303 306 310 312 314 313 318 326 324 327 329 332 334 336 337 338 343 346 346 346 345 344 341 338 336 336 335 334 334 333 334 333 333 332 332 331 330 328 327 327 327
304 301 295 292 294 298 302 305 303 306 308 309 313 312 314 324 326 327 329 332 333 336 336 339 342 344 345 344 344 342 341 338 337 336 336 336 335 335 333 333 332 331 330 328 327 326 327 327 328
298 298 291 292 296 298 302 304 303 305 310 310 313 314 316 321 322 324 330 332 335 335 337 339 336 339 342 342 342 341 340 339 339 338 337 335 337 336 334 333 331 331 329 328 328 328 328 329 330
295 293 292 293 298 298 303 305 302 306 307 309 319 312 314 315 320 326 328 332 335 336 336 339 339 337 335 337 338 339 339 339 338 338 337 335 336 337 333 335 333 333 331 330 330 330 330 331 331
301 296 291 293 298 297 303 305 305 308 308 315 321 312 314 320 318 324 327 330 333 335 336 336 338 336 336 335 332 334 336 336 336 335 333 331 331 331 332 330 332 332 331 331 330 331 331 331 331
308 296 293 296 297 298 303 304 305 307 308 313 317 318 321 319 320 324 325 328 330 332 333 333 335 336 333 332 330 330 331 331 331 330 327 325 325 325 325 326 328 333 334 334 332 332 332 332 330
299 296 296 299 300 301 304 304 304 303 310 310 314 320 321 315 321 321 322 322 325 327 330 332 333 333 331 334 329 328 330 328 328 327 325 324 323 324 326 322 324 327 328 330 332 332 331 327 322
299 295 300 303 303 304 305 306 307 304 303 311 314 318 316 313 319 321 322 323 325 327 328 331 332 332 332 331 328 325 326 325 325 325 323 323 324 321 322 321 321 320 317 320 321 320 320 320 321
293 300 301 303 305 304 305 307 301 306 307 310 318 322 317 312 315 320 322 324 325 326 329 331 332 332 330 330 327 326 326 323 321 322 323 321 320 319 319 319 320 318 319 317 317 317 319 319 320
295 297 301 304 305 303 305 304 305 302 307 318 322 322 319 314 313 318 324 326 327 326 328 330 332 330 330 328 327 326 325 325 323 322 323 323 321 320 319 319 319 318 318 318 318 319 319 319 320
297 299 300 303 306 305 302 305 304 304 314 318 321 319 320 318 314 310 321 324 326 327 328 330 329 329 329 327 326 326 325 324 323 323 323 324 323 321 320 320 320 319 320 320 320 320 319 319 320
299 294 298 301 304 303 305 300 300 307 315 317 318 319 319 320 317 312 317 321 325 327 328 328 328 328 326 326 325 324 324 324 323 324 324 324 324 323 322 320 320 320 321 320 320 319 319 319 321
294 294 289 298 302 305 303 295 302 304 312 315 315 314 317 319 321 317 314 318 322 325 326 327 329 327 326 326 325 324 323 322 322 323 323 323 324 324 322 321 321 322 321 321 319 319 319 320 321
292 286 289 295 302 303 301 296 301 304 308 310 312 314 315 316 319 321 321 315 318 320 326 326 327 325 325 325 326 325 324 322 322 322 322 323 323 324 322 321 321 322 321 320 320 321 320 323 323
286 286 292 292 300 301 298 297 302 303 300 308 310 312 314 315 318 321 323 324 315 317 322 326 326 326 326 325 323 322 322 321 321 321 322 323 323 323 322 321 321 321 320 320 320 320 323 324 324
292 292 291 293 298 298 297 297 300 299 297 302 307 308 313 315 319 320 322 324 321 315 317 321 322 322 323 319 318 317 319 319 320 322 323 323 324 324 323 324 322 321 321 321 322 322 322 324 324
291 291 290 293 297 298 297 297 300 298 296 293 294 300 306 308 313 317 317 320 323 319 318 318 320 319 322 322 320 321 320 321 323 326 326 327 329 329 328 327 326 326 324 324 324 324 323 323 322
287 288 289 289 293 294 295 291 292 296 296 293 294 294 297 300 304 307 316 316 320 319 318 320 320 320 320 321 322 324 324 324 324 329 329 331 332 332 331 329 328 327 327 326 326 326 324 322 319
286 292 292 290 288 284 291 283 285 290 292 291 291 293 294 297 302 304 309 312 312 315 316 318 319 320 321 323 323 323 322 322 325 327 328 328 329 331 332 331 330 329 328 327 327 326 324 322 318
288 293 291 290 285 286 286 284 286 290 288 291 291 291 293 296 298 300 303 307 310 311 312 315 316 317 317 318 322 325 324 324 325 324 325 323 321 322 324 326 328 328 328 328 326 324 324 322 318
293 291 290 288 285 279 285 284 283 286 289 290 292 293 293 296 297 298 299 302 302 304 305 308 309 308 309 312 314 318 322 320 317 315 315 313 313 317 318 320 321 321 321 319 320 320 321 321 320
290 285 278 274 272 275 285 284 285 289 291 290 291 292 294 295 297 297 298 298 299 300 301 303 303 303 304 305 305 307 312 311 310 309 308 308 310 310 310 312 312 312 313 316 319 317 315 316 317
286 284 277 271 273 277 284 280 284 290 293 293 293 293 294 295 296 298 298 298 298 299 299 300 300 301 302 303 303 304 304 305 305 305 305 306 306 306 307 307 309 309 310 310 310 310 311 312 311
284 281 286 280 275 276 278 281 288 291 290 290 291 293 293 294 295 296 298 298 298 298 298 299 300 300 301 302 302 302 303 304 304 305 305 304 305 305 305 305 305 305 307 308 308 307 305 305 305
285 287 279 279 270 271 277 277 279 285 287 289 289 290 291 293 295 296 297 299 298 298 297 297 298 298 298 299 300 300 301 302 303 303 302 302 302 302 301 301 300 301 303 304 304 302 302 300 300
283 282 283 282 280 275 274 277 283 285 287 287 289 290 290 291 292 295 297 298 298 298 297 296 296 297 297 297 296 297 298 299 299 299 299 299 299 299 299 298 298 297 297 299 299 299 299 297 297
285 282 283 276 276 279 278 278 288 288 288 289 288 291 291 292 292 292 294 296 296 297 297 296 296 295 296 296 295 295 296 297 297 297 297 298 297 297 297 296 295 295 295 295 295 294 295 294 292
Wind_Speed
6 6 1 5 3 4 4 7 3 6 3 2 2 4 9 4 5 6 5 6 15 17 14 12 19 18 16 16 16 16 16 15 14 13 12 12 12 11 11 11 10 8 10 9 9 9 9 8 7
4 1 4 3 4 2 6 4 7 9 5 7 5 3 3 3 3 6 8 11 18 16 13 11 14 17 16 17 17 16 15 14 13 12 12 12 12 12 11 10 9 9 8 8 8 7 7 6 6
3 2 4 4 4 8 6 7 9 5 5 6 4 4 2 5 2 11 4 16 17 15 13 10 14 15 16 17 17 16 15 14 14 13 12 12 11 11 10 9 8 8 7 7 6 5 5 4 4
1 4 4 4 11 7 9 5 3 5 2 2 4 6 2 3 7 7 15 15 17 14 13 12 16 17 18 16 16 15 15 14 14 14 13 12 11 10 9 9 7 7 6 5 5 4 3 3 3
3 3 3 4 10 6 6 7 3 5 3 3 5 5 1 2 7 16 17 14 15 14 11 12 15 18 18 17 16 15 14 14 14 13 12 12 11 10 10 8 7 6 5 4 3 2 1 2 3
2 3 3 11 13 5 6 8 4 5 6 5 5 6 4 5 12 13 16 14 12 17 12 11 12 14 16 16 15 14 14 13 12 10 9 5 11 12 9 9 7 6 4 3 2 1 2 4 5
3 4 8 6 16 9 11 6 5 8 4 6 10 6 1 4 7 14 13 13 12 14 12 10 10 11 11 12 12 13 13 12 10 10 8 6 8 10 9 8 7 5 5 4 4 4 5 6 7
2 3 5 8 15 14 5 6 4 9 9 2 6 8 6 7 9 11 12 12 13 14 12 14 12 8 7 7 10 10 10 10 10 10 8 6 6 6 6 6 5 6 6 6 6 6 7 8 8
3 5 15 21 18 8 4 5 3 1 7 2 4 7 4 18 13 13 12 12 13 14 16 14 12 10 6 6 7 9 9 9 8 7 8 6 3 4 4 5 6 7 7 7 8 8 8 8 8
6 9 16 4 6 7 3 2 1 1 3 2 2 2 16 20 19 17 16 16 17 18 17 13 13 11 7 6 5 5 5 4 4 5 5 4 4 4 4 5 7 8 7 9 8 9 8 7 4
5 13 8 9 8 7 3 4 3 4 5 8 12 13 18 19 15 16 15 16 19 18 14 15 15 11 10 6 5 2 2 3 3 5 5 4 3 3 3 2 3 3 4 3 4 5 3 5 4
6 9 13 13 6 5 4 2 3 8 10 6 6 23 20 19 19 19 17 16 19 19 16 15 13 12 10 6 6 4 4 3 3 4 5 4 3 3 4 3 4 3 3 4 4 3 4 5 5
8 5 7 12 8 9 3 7 6 7 5 6 15 15 19 18 16 10 12 13 16 16 16 16 12 11 10 8 6 5 5 5 5 4 5 4 4 4 3 4 3 3 3 4 4 4 4 4 5
4 7 8 9 14 10 1 5 4 7 5 8 17 17 14 17 15 7 12 14 16 14 16 15 12 10 9 7 7 6 5 6 5 5 5 6 4 4 4 4 4 4 4 4 4 4 4 4 4
9 8 6 10 10 8 6 4 5 6 5 11 11 10 10 11 10 14 15 14 16 13 12 13 12 9 9 9 6 4 4 4 4 5 6 6 6 6 5 4 4 5 4 5 4 4 3 4 3
7 4 11 12 11 6 3 7 2 8 3 12 10 7 7 7 8 7 9 10 11 11 12 12 11 10 8 7 5 4 4 4 4 4 4 6 6 6 5 4 4 4 3 3 3 3 3 4 4
9 9 12 11 19 7 6 4 9 13 6 5 6 8 7 5 5 6 8 8 10 10 11 11 11 10 9 6 5 5 6 4 4 4 4 6 6 6 5 4 4 4 3 3 3 3 4 4 4
3 9 15 11 6 6 5 8 15 18 11 7 5 5 5 6 13 7 7 7 8 7 8 10 9 10 10 5 4 2 3 3 4 4 4 6 5 6 5 4 5 4 4 4 3 4 4 5 3
6 13 8 5 3 2 8 13 7 14 13 5 4 5 5 4 5 4 5 6 7 7 8 10 9 8 6 2 3 3 4 3 3 4 6 7 6 6 6 5 5 5 5 5 5 3 5 3 3
9 11 6 8 7 4 7 6 4 9 8 9 11 8 5 4 5 4 1 4 5 6 7 6 8 7 8 5 3 3 4 3 3 4 6 7 7 6 5 6 6 6 5 5 6 5 3 3 4
5 5 3 5 6 13 7 4 7 7 11 9 9 5 7 7 6 8 7 4 4 4 2 5 5 6 6 6 2 2 2 1 2 3 3 5 6 6 6 6 5 5 5 5 6 6 7 5 3
5 11 4 9 3 4 5 3 3 7 16 10 11 11 9 8 7 8 7 7 6 4 3 5 5 4 3 1 3 5 3 5 5 4 2 3 2 4 4 5 5 5 4 5 5 4 5 3 5
3 8 5 2 7 5 6 5 3 3 7 12 12 9 8 8 6 10 8 7 5 5 4 4 4 4 3 2 2 4 4 3 2 2 3 1 2 4 4 2 4 3 3 4 5 4 4 3 2
7 5 5 3 2 5 2 3 2 1 1 9 11 8 8 8 8 7 4 6 5 5 3 4 4 4 4 2 3 2 6 4 2 2 2 1 1 2 4 4 3 3 3 3 3 4 3 2 2
7 7 4 5 6 2 2 3 0 2 5 6 7 8 8 6 6 5 6 5 4 4 5 5 5 2 2 1 1 0 3 3 4 2 2 1 1 2 3 3 3 3 3 3 3 3 4 3 2
2 4 3 2 1 2 4 3 2 6 6 5 7 5 7 7 5 6 7 6 6 7 6 4 3 3 3 3 2 2 2 2 2 2 1 2 2 2 2 3 3 3 3 4 4 3 3 3 3
4 3 3 4 2 4 3 2 3 5 3 4 6 7 9 7 8 8 6 5 6 6 6 6 4 2 2 3 3 3 3 4 3 4 4 3 3 2 4 4 4 4 5 5 5 4 4 5 4
1 2 4 4 3 3 4 3 2 1 4 5 6 7 7 7 8 7 6 6 5 4 4 6 5 4 4 4 4 3 4 4 4 4 5 5 4 3 4 5 5 4 5 5 5 4 4 5 4
6 4 4 4 3 2 3 2 3 2 4 5 6 6 6 7 8 8 8 7 5 4 4 4 4 4 4 4 4 5 4 4 4 4 4 3 4 4 5 4 5 4 5 5 5 5 5 6 5
2 1 2 4 4 2 3 0 4 4 3 4 6 7 7 7 7 8 8 7 7 7 6 5 4 4 3 2 3 5 3 4 3 3 3 3 5 3 4 5 5 5 5 5 5 5 5 5 6
Wind_Direction
332 332 86 44 53 64 253 246 261 285 279 253 351 137 166 124 165 203 133 140 137 147 156 161 158 152 156 158 147 143 139 136 133 131 130 131 132 132 132 126 125 122 111 106 99 90 86 81 72
319 31 46 79 108 185 260 242 238 236 219 127 93 14 81 145 113 115 125 159 144 145 154 158 154 154 159 151 153 151 142 141 138 137 138 139 140 140 140 137 134 131 122 115 108 100 91 78 61
246 41 103 138 185 209 229 212 221 249 196 159 101 58 157 170 46 150 137 151 142 145 151 161 153 158 155 151 156 150 143 147 144 145 145 146 146 144 143 142 141 130 131 122 114 104 90 67 48
223 32 23 138 238 255 216 236 270 326 92 176 122 101 346 271 155 156 136 147 141 145 151 160 159 159 153 152 153 149 149 150 149 150 150 148 150 149 148 147 144 137 133 131 123 111 92 60 24
10 67 181 225 243 241 253 253 238 265 281 192 155 186 125 19 112 133 137 145 148 146 144 155 164 157 154 154 153 152 152 154 155 159 158 161 159 157 157 156 150 149 151 144 128 108 59 360 339
249 118 181 215 241 224 245 243 220 228 208 172 97 132 158 127 126 145 140 141 157 153 148 152 154 152 156 156 155 156 156 158 159 166 154 138 173 157 160 163 165 162 172 174 170 214 277 294 304
205 160 216 186 235 254 242 209 215 225 217 205 149 128 132 173 156 142 140 132 147 158 149 153 154 156 157 158 156 159 161 162 162 159 160 146 114 153 167 169 180 188 204 207 220 246 275 290 297
234 181 196 211 219 251 211 189 247 178 213 100 151 166 194 183 151 130 133 132 143 160 161 162 158 157 158 161 155 157 159 161 166 158 162 167 161 156 165 181 207 214 219 231 246 262 279 290 300
284 239 227 220 204 211 180 190 277 32 132 319 146 154 187 134 136 131 137 143 156 165 171 173 169 161 152 153 165 165 168 170 168 170 172 173 179 203 207 212 226 235 240 247 259 269 280 289 299
191 232 241 254 244 215 201 180 222 202 152 249 102 51 131 141 153 153 161 164 172 175 178 173 176 172 152 163 156 170 169 169 168 170 178 180 193 205 211 228 241 249 256 260 268 279 287 298 292
229 239 279 284 250 245 243 255 200 162 259 211 187 156 149 153 165 164 168 177 172 177 183 179 174 169 165 169 168 163 162 163 177 184 185 194 195 219 234 246 257 255 273 274 288 292 285 281 275
276 241 262 281 319 275 223 286 215 186 224 224 176 162 153 165 175 174 173 173 174 181 182 185 176 169 172 161 170 171 173 176 182 194 192 184 203 219 236 238 237 238 233 258 259 263 268 273 270
239 238 257 282 298 290 287 262 232 233 284 125 131 161 169 174 177 179 169 164 177 181 183 187 180 179 178 174 174 175 186 184 193 190 197 186 197 214 221 233 225 233 229 236 248 252 263 271 275
309 226 245 264 304 312 300 236 333 253 158 142 154 171 178 178 173 145 171 172 178 183 184 185 184 184 179 188 184 188 190 194 186 195 205 200 196 202 210 224 227 233 217 232 237 243 254 262 265
237 291 247 215 257 258 300 306 240 299 153 157 167 174 178 180 167 185 178 183 174 181 177 180 181 186 182 185 182 186 197 195 199 203 205 205 203 212 208 217 229 231 225 241 240 259 256 266 267
197 220 244 217 232 259 261 214 348 354 250 171 169 158 180 181 186 175 180 176 181 175 175 179 180 182 185 183 172 181 196 198 212 207 200 211 211 210 207 221 238 240 240 231 231 242 258 253 258
202 215 227 196 189 231 231 125 295 17 247 175 181 173 180 186 199 192 167 169 177 177 182 180 181 176 184 182 176 181 196 208 216 217 213 212 208 210 206 213 230 229 232 230 227 245 218 242 251
213 223 212 174 147 191 173 123 293 359 321 238 166 185 191 203 215 190 177 167 166 168 181 182 182 187 183 171 166 185 192 229 236 221 209 213 213 214 209 224 231 215 227 237 228 231 242 236 242
272 251 139 70 63 111 176 135 356 355 2 38 120 238 212 263 330 254 184 172 162 165 168 187 186 188 166 144 162 185 213 199 217 237 226 210 217 218 209 218 224 212 212 220 214 217 240 251 203
270 120 103 77 79 80 146 180 354 360 332 27 22 12 34 5 6 338 231 189 173 172 190 179 197 187 189 189 178 165 160 199 184 208 223 225 219 218 211 213 220 211 219 223 222 220 242 240 191
2 21 75 108 90 47 79 61 14 320 345 31 40 324 50 36 30 20 26 88 73 74 189 191 206 200 208 197 144 107 120 69 161 222 220 219 218 221 214 218 216 219 213 230 224 216 212 244 234
19 339 90 117 51 122 359 130 46 355 324 350 21 6 19 31 24 35 26 36 40 55 50 64 74 77 57 216 209 216 217 203 202 198 202 233 287 270 238 218 217 219 210 224 228 212 213 184 231
4 322 20 120 99 122 17 86 347 26 307 349 347 358 11 22 38 35 13 28 12 17 23 45 53 63 23 0 236 226 231 236 257 179 185 105 52 31 20 356 263 255 230 231 221 225 214 202 178
320 335 46 44 75 65 76 106 313 104 297 320 323 346 17 22 32 49 58 36 14 7 73 65 59 31 48 353 306 240 239 205 209 170 184 135 57 38 25 39 56 51 49 24 4 358 339 255 247
30 22 13 9 29 122 85 62 346 294 295 280 287 338 354 28 27 34 55 52 28 19 29 45 75 71 41 79 38 40 262 217 195 185 179 174 58 45 15 28 49 56 42 34 52 54 57 36 47
351 94 127 198 38 67 354 73 87 187 213 273 321 354 6 20 19 20 28 30 23 14 25 47 85 115 91 89 54 28 54 98 80 95 114 94 102 98 40 54 60 60 59 50 50 57 54 43 49
317 50 172 104 25 59 343 33 42 293 275 10 12 24 24 5 2 7 20 36 24 18 11 8 14 50 78 108 110 77 63 71 92 77 75 83 80 81 69 56 59 51 50 44 51 58 53 56 52
45 230 41 18 56 66 16 23 130 56 39 24 19 27 19 3 9 10 11 16 13 17 6 17 16 11 9 25 38 48 69 76 66 69 77 76 69 65 75 76 66 53 59 58 66 64 66 84 62
349 21 56 114 111 132 124 326 226 105 22 34 28 27 29 20 9 1 0 0 1 1 9 2 13 0 9 27 29 33 28 42 73 92 90 99 100 100 93 92 80 72 70 65 83 78 78 86 81
262 88 96 103 333 36 80 297 86 44 344 36 36 28 32 37 24 16 10 3 0 353 348 344 349 335 325 351 102 96 39 22 46 81 97 98 99 97 106 90 84 67 61 68 85 81 77 90 87